Year,Month,Day,Hour,Minute,Value (Times are PST for temperature in C)
2007,10,17,00,00,6.20
2007,10,17,00,01,6.20
2007,10,17,00,02,6.20
2007,10,17,00,03,6.20
2007,10,17,00,04,6.20
2007,10,17,00,05,6.20
2007,10,17,00,06,6.20
2007,10,17,00,07,6.30
2007,10,17,00,08,6.30
2007,10,17,00,09,6.30
2007,10,17,00,10,6.30
2007,10,17,00,11,6.30
2007,10,17,00,12,6.30
2007,10,17,00,13,6.30
2007,10,17,00,14,6.30
2007,10,17,00,15,6.30
2007,10,17,00,16,6.30
2007,10,17,00,17,6.30
2007,10,17,00,18,6.40
2007,10,17,00,19,6.40
2007,10,17,00,20,6.40
2007,10,17,00,21,6.40
2007,10,17,00,22,6.40
2007,10,17,00,23,6.40
2007,10,17,00,24,6.40
2007,10,17,00,25,6.40
2007,10,17,00,26,6.40
2007,10,17,00,27,6.40
2007,10,17,00,28,6.40
2007,10,17,00,29,6.40
2007,10,17,00,30,6.40
2007,10,17,00,31,6.40
2007,10,17,00,32,6.40
2007,10,17,00,33,6.40
2007,10,17,00,34,6.50
2007,10,17,00,35,6.50
2007,10,17,00,36,6.50
2007,10,17,00,37,6.50
2007,10,17,00,38,6.50
2007,10,17,00,39,6.50
2007,10,17,00,40,6.50
2007,10,17,00,41,6.50
2007,10,17,00,42,6.60
2007,10,17,00,43,6.60
2007,10,17,00,44,6.60
2007,10,17,00,45,6.60
2007,10,17,00,46,6.60
2007,10,17,00,47,6.60
2007,10,17,00,48,6.60
2007,10,17,00,49,6.60
2007,10,17,00,50,6.60
2007,10,17,00,51,6.60
2007,10,17,00,52,6.60
2007,10,17,00,53,6.60
2007,10,17,00,54,6.60
2007,10,17,00,55,6.60
2007,10,17,00,56,6.60
2007,10,17,00,57,6.60
2007,10,17,00,58,6.60
2007,10,17,00,59,6.60
2007,10,17,01,00,6.60
2007,10,17,01,01,6.60
2007,10,17,01,02,6.60
2007,10,17,01,03,6.60
2007,10,17,01,04,6.60
2007,10,17,01,05,6.60
2007,10,17,01,06,6.60
2007,10,17,01,07,6.60
2007,10,17,01,08,6.60
2007,10,17,01,09,6.60
2007,10,17,01,10,6.60
2007,10,17,01,11,6.60
2007,10,17,01,12,6.70
2007,10,17,01,13,6.70
2007,10,17,01,14,6.70
2007,10,17,01,15,6.70
2007,10,17,01,16,6.70
2007,10,17,01,17,6.70
2007,10,17,01,18,6.70
2007,10,17,01,19,6.70
2007,10,17,01,20,6.70
2007,10,17,01,21,6.70
2007,10,17,01,22,6.70
2007,10,17,01,23,6.70
2007,10,17,01,24,6.70
2007,10,17,01,25,6.70
2007,10,17,01,26,6.70
2007,10,17,01,27,6.70
2007,10,17,01,28,6.70
2007,10,17,01,29,6.70
2007,10,17,01,30,6.70
2007,10,17,01,31,6.80
2007,10,17,01,32,6.80
2007,10,17,01,33,6.80
2007,10,17,01,34,6.80
2007,10,17,01,35,6.80
2007,10,17,01,36,6.80
2007,10,17,01,37,6.80
2007,10,17,01,38,6.90
2007,10,17,01,39,6.90
2007,10,17,01,40,6.90
2007,10,17,01,41,6.90
2007,10,17,01,42,6.90
2007,10,17,01,43,7.00
2007,10,17,01,44,7.00
2007,10,17,01,45,7.00
2007,10,17,01,46,7.10
2007,10,17,01,47,7.10
2007,10,17,01,48,7.10
2007,10,17,01,49,7.10
2007,10,17,01,50,7.10
2007,10,17,01,51,7.10
2007,10,17,01,52,7.10
2007,10,17,01,53,7.10
2007,10,17,01,54,7.10
2007,10,17,01,55,7.10
2007,10,17,01,56,7.10
2007,10,17,01,57,7.10
2007,10,17,01,58,7.10
2007,10,17,01,59,7.10
2007,10,17,02,00,7.10
2007,10,17,02,01,7.10
2007,10,17,02,02,7.10
2007,10,17,02,03,7.10
2007,10,17,02,04,7.10
2007,10,17,02,05,7.10
2007,10,17,02,06,7.10
2007,10,17,02,07,7.10
2007,10,17,02,08,7.10
2007,10,17,02,09,7.10
2007,10,17,02,10,7.10
2007,10,17,02,11,7.10
2007,10,17,02,12,7.10
2007,10,17,02,13,7.10
2007,10,17,02,14,7.10
2007,10,17,02,15,7.10
2007,10,17,02,16,7.00
2007,10,17,02,17,7.00
2007,10,17,02,18,7.00
2007,10,17,02,19,7.00
2007,10,17,02,20,7.00
2007,10,17,02,21,6.90
2007,10,17,02,22,6.90
2007,10,17,02,23,6.90
2007,10,17,02,24,6.90
2007,10,17,02,25,6.90
2007,10,17,02,26,6.90
2007,10,17,02,27,6.90
2007,10,17,02,28,6.90
2007,10,17,02,29,6.90
2007,10,17,02,30,6.90
2007,10,17,02,31,6.90
2007,10,17,02,32,6.90
2007,10,17,02,33,6.90
2007,10,17,02,34,6.90
2007,10,17,02,35,6.90
2007,10,17,02,36,6.90
2007,10,17,02,37,6.90
2007,10,17,02,38,6.90
2007,10,17,02,39,6.90
2007,10,17,02,40,6.90
2007,10,17,02,41,6.90
2007,10,17,02,42,6.90
2007,10,17,02,43,6.90
2007,10,17,02,44,6.90
2007,10,17,02,45,6.90
2007,10,17,02,46,6.90
2007,10,17,02,47,6.90
2007,10,17,02,48,6.90
2007,10,17,02,49,6.90
2007,10,17,02,50,6.90
2007,10,17,02,51,6.90
2007,10,17,02,52,6.90
2007,10,17,02,53,6.90
2007,10,17,02,54,7.00
2007,10,17,02,55,7.00
2007,10,17,02,56,7.00
2007,10,17,02,57,7.00
2007,10,17,02,58,7.00
2007,10,17,02,59,7.00
2007,10,17,03,00,7.00
2007,10,17,03,01,7.10
2007,10,17,03,02,7.10
2007,10,17,03,03,7.10
2007,10,17,03,04,7.10
2007,10,17,03,05,7.10
2007,10,17,03,06,7.10
2007,10,17,03,07,7.20
2007,10,17,03,08,7.20
2007,10,17,03,09,7.20
2007,10,17,03,10,7.20
2007,10,17,03,11,7.20
2007,10,17,03,12,7.20
2007,10,17,03,13,7.20
2007,10,17,03,14,7.30
2007,10,17,03,15,7.30
2007,10,17,03,16,7.30
2007,10,17,03,17,7.30
2007,10,17,03,18,7.30
2007,10,17,03,19,7.30
2007,10,17,03,20,7.30
2007,10,17,03,21,7.30
2007,10,17,03,22,7.30
2007,10,17,03,23,7.30
2007,10,17,03,24,7.30
2007,10,17,03,25,7.30
2007,10,17,03,26,7.30
2007,10,17,03,27,7.30
2007,10,17,03,28,7.20
2007,10,17,03,29,7.20
2007,10,17,03,30,7.20
2007,10,17,03,31,7.20
2007,10,17,03,32,7.20
2007,10,17,03,33,7.20
2007,10,17,03,34,7.20
2007,10,17,03,35,7.20
2007,10,17,03,36,7.20
2007,10,17,03,37,7.20
2007,10,17,03,38,7.20
2007,10,17,03,39,7.20
2007,10,17,03,40,7.20
2007,10,17,03,41,7.20
2007,10,17,03,42,7.20
2007,10,17,03,43,7.20
2007,10,17,03,44,7.20
2007,10,17,03,45,7.20
2007,10,17,03,46,7.20
2007,10,17,03,47,7.20
2007,10,17,03,48,7.20
2007,10,17,03,49,7.20
2007,10,17,03,50,7.20
2007,10,17,03,51,7.20
2007,10,17,03,52,7.20
2007,10,17,03,53,7.20
2007,10,17,03,54,7.20
2007,10,17,03,55,7.20
2007,10,17,03,56,7.20
2007,10,17,03,57,7.20
2007,10,17,03,58,7.20
2007,10,17,03,59,7.20
2007,10,17,04,00,7.20
2007,10,17,04,01,7.20
2007,10,17,04,02,7.20
2007,10,17,04,03,7.20
2007,10,17,04,04,7.20
2007,10,17,04,05,7.20
2007,10,17,04,06,7.20
2007,10,17,04,07,7.20
2007,10,17,04,08,7.20
2007,10,17,04,11,7.20
2007,10,17,04,28,7.30
2007,10,17,04,31,7.30
2007,10,17,04,32,7.30
2007,10,17,04,52,7.30
2007,10,17,05,06,7.30
2007,10,17,05,09,7.40
2007,10,17,05,10,7.40
2007,10,17,05,12,7.40
2007,10,17,05,13,7.40
2007,10,17,05,14,7.40
2007,10,17,05,15,7.40
2007,10,17,05,16,7.40
2007,10,17,05,17,7.40
2007,10,17,05,18,7.40
2007,10,17,05,19,7.40
2007,10,17,05,20,7.40
2007,10,17,05,21,7.40
2007,10,17,05,22,7.40
2007,10,17,05,23,7.40
2007,10,17,05,24,7.40
2007,10,17,05,25,7.40
2007,10,17,05,26,7.40
2007,10,17,05,27,7.40
2007,10,17,05,28,7.40
2007,10,17,05,29,7.40
2007,10,17,05,30,7.40
2007,10,17,05,31,7.40
2007,10,17,05,32,7.40
2007,10,17,05,33,7.40
2007,10,17,05,34,7.40
2007,10,17,05,35,7.40
2007,10,17,05,36,7.40
2007,10,17,05,37,7.40
2007,10,17,05,38,7.40
2007,10,17,05,39,7.40
2007,10,17,05,40,7.40
2007,10,17,05,41,7.50
2007,10,17,05,42,7.50
2007,10,17,05,43,7.50
2007,10,17,05,44,7.50
2007,10,17,05,45,7.50
2007,10,17,05,46,7.50
2007,10,17,05,47,7.50
2007,10,17,05,48,7.50
2007,10,17,05,49,7.50
2007,10,17,05,50,7.50
2007,10,17,05,51,7.50
2007,10,17,05,52,7.50
2007,10,17,05,53,7.50
2007,10,17,05,54,7.50
2007,10,17,05,55,7.50
2007,10,17,05,56,7.50
2007,10,17,05,57,7.50
2007,10,17,05,58,7.50
2007,10,17,05,59,7.50
2007,10,17,06,00,7.60
2007,10,17,06,01,7.60
2007,10,17,06,02,7.60
2007,10,17,06,03,7.60
2007,10,17,06,04,7.60
2007,10,17,06,05,7.50
2007,10,17,06,06,7.60
2007,10,17,06,07,7.60
2007,10,17,06,08,7.60
2007,10,17,06,09,7.60
2007,10,17,06,10,7.60
2007,10,17,06,11,7.60
2007,10,17,06,12,7.60
2007,10,17,06,14,7.60
2007,10,17,06,15,7.60
2007,10,17,06,16,7.60
2007,10,17,06,17,7.60
2007,10,17,06,18,7.60
2007,10,17,06,19,7.60
2007,10,17,06,20,7.60
2007,10,17,06,21,7.60
2007,10,17,06,22,7.60
2007,10,17,06,23,7.60
2007,10,17,06,24,7.60
2007,10,17,06,25,7.60
2007,10,17,06,26,7.60
2007,10,17,06,27,7.60
2007,10,17,06,28,7.60
2007,10,17,06,29,7.60
2007,10,17,06,30,7.60
2007,10,17,06,31,7.60
2007,10,17,06,34,7.60
2007,10,17,06,36,7.60
2007,10,17,06,39,7.50
2007,10,17,06,46,7.40
2007,10,17,06,54,7.40
2007,10,17,07,00,7.40
2007,10,17,07,09,7.40
2007,10,17,07,12,7.40
2007,10,17,07,13,7.40
2007,10,17,07,14,7.40
2007,10,17,07,15,7.40
2007,10,17,07,16,7.40
2007,10,17,07,17,7.40
2007,10,17,07,18,7.40
2007,10,17,07,19,7.40
2007,10,17,07,20,7.40
2007,10,17,07,21,7.40
2007,10,17,07,22,7.40
2007,10,17,07,23,7.40
2007,10,17,07,24,7.40
2007,10,17,07,25,7.40
2007,10,17,07,26,7.40
2007,10,17,07,27,7.40
2007,10,17,07,28,7.40
2007,10,17,07,29,7.40
2007,10,17,07,30,7.40
2007,10,17,07,31,7.40
2007,10,17,07,32,7.40
2007,10,17,07,33,7.40
2007,10,17,07,34,7.40
2007,10,17,07,35,7.40
2007,10,17,07,36,7.40
2007,10,17,07,37,7.40
2007,10,17,07,38,7.40
2007,10,17,07,39,7.40
2007,10,17,07,40,7.40
2007,10,17,07,41,7.40
2007,10,17,07,42,7.40
2007,10,17,07,43,7.40
2007,10,17,07,44,7.40
2007,10,17,07,45,7.40
2007,10,17,07,46,7.40
2007,10,17,07,47,7.40
2007,10,17,07,48,7.40
2007,10,17,07,49,7.40
2007,10,17,07,50,7.40
2007,10,17,07,51,7.40
2007,10,17,07,52,7.40
2007,10,17,07,53,7.40
2007,10,17,07,54,7.40
2007,10,17,07,55,7.40
2007,10,17,07,56,7.40
2007,10,17,07,57,7.40
2007,10,17,07,58,7.40
2007,10,17,07,59,7.40
2007,10,17,08,00,7.40
2007,10,17,08,01,7.40
2007,10,17,08,02,7.40
2007,10,17,08,03,7.40
2007,10,17,08,04,7.40
2007,10,17,08,05,7.40
2007,10,17,08,06,7.40
2007,10,17,08,07,7.40
2007,10,17,08,08,7.40
2007,10,17,08,09,7.40
2007,10,17,08,10,7.40
2007,10,17,08,11,7.40
2007,10,17,08,12,7.40
2007,10,17,08,13,7.40
2007,10,17,08,14,7.40
2007,10,17,08,15,7.40
2007,10,17,08,16,7.40
2007,10,17,08,17,7.40
2007,10,17,08,18,7.40
2007,10,17,08,19,7.40
2007,10,17,08,20,7.40
2007,10,17,08,21,7.40
2007,10,17,08,22,7.40
2007,10,17,08,23,7.40
2007,10,17,08,24,7.40
2007,10,17,08,25,7.40
2007,10,17,08,26,7.50
2007,10,17,08,27,7.40
2007,10,17,08,28,7.40
2007,10,17,08,29,7.40
2007,10,17,08,30,7.50
2007,10,17,08,31,7.50
2007,10,17,08,32,7.50
2007,10,17,08,33,7.50
2007,10,17,08,34,7.50
2007,10,17,08,35,7.50
2007,10,17,08,36,7.50
2007,10,17,08,37,7.50
2007,10,17,08,38,7.50
2007,10,17,08,39,7.50
2007,10,17,08,40,7.50
2007,10,17,08,41,7.50
2007,10,17,08,42,7.60
2007,10,17,08,43,7.60
2007,10,17,08,44,7.60
2007,10,17,08,45,7.60
2007,10,17,08,46,7.60
2007,10,17,08,47,7.60
2007,10,17,08,48,7.60
2007,10,17,08,49,7.60
2007,10,17,08,50,7.60
2007,10,17,08,51,7.60
2007,10,17,08,52,7.70
2007,10,17,08,53,7.70
2007,10,17,08,54,7.70
2007,10,17,08,55,7.70
2007,10,17,08,56,7.70
2007,10,17,08,57,7.70
2007,10,17,08,58,7.70
2007,10,17,08,59,7.70
2007,10,17,09,00,7.70
2007,10,17,09,01,7.80
2007,10,17,09,02,7.80
2007,10,17,09,03,7.80
2007,10,17,09,04,7.80
2007,10,17,09,05,7.80
2007,10,17,09,06,7.80
2007,10,17,09,07,7.80
2007,10,17,09,08,7.90
2007,10,17,09,09,7.90
2007,10,17,09,10,7.90
2007,10,17,09,11,7.90
2007,10,17,09,12,7.90
2007,10,17,09,13,8.00
2007,10,17,09,14,8.00
2007,10,17,09,15,8.00
2007,10,17,09,16,8.10
2007,10,17,09,17,8.10
2007,10,17,09,18,8.10
2007,10,17,09,19,8.10
2007,10,17,09,20,8.10
2007,10,17,09,21,8.20
2007,10,17,09,22,8.20
2007,10,17,09,23,8.20
2007,10,17,09,24,8.20
2007,10,17,09,25,8.20
2007,10,17,09,26,8.20
2007,10,17,09,27,8.30
2007,10,17,09,28,8.30
2007,10,17,09,29,8.30
2007,10,17,09,30,8.30
2007,10,17,09,31,8.30
2007,10,17,09,32,8.40
2007,10,17,09,33,8.40
2007,10,17,09,34,8.40
2007,10,17,09,35,8.40
2007,10,17,09,36,8.40
2007,10,17,09,37,8.40
2007,10,17,09,38,8.40
2007,10,17,09,39,8.40
2007,10,17,09,40,8.40
2007,10,17,09,41,8.40
2007,10,17,09,42,8.40
2007,10,17,09,43,8.50
2007,10,17,09,44,8.50
2007,10,17,09,45,8.60
2007,10,17,09,46,8.60
2007,10,17,09,47,8.60
2007,10,17,09,48,8.70
2007,10,17,09,49,8.70
2007,10,17,09,50,8.70
2007,10,17,09,51,8.70
2007,10,17,09,52,8.70
2007,10,17,09,53,8.70
2007,10,17,09,54,8.70
2007,10,17,09,55,8.80
2007,10,17,09,56,8.80
2007,10,17,09,57,8.80
2007,10,17,09,58,8.80
2007,10,17,09,59,8.80
2007,10,17,10,00,8.80
2007,10,17,10,01,8.90
2007,10,17,10,02,8.90
2007,10,17,10,03,9.00
2007,10,17,10,04,9.00
2007,10,17,10,05,9.10
2007,10,17,10,06,9.10
2007,10,17,10,07,9.20
2007,10,17,10,08,9.20
2007,10,17,10,09,9.30
2007,10,17,10,10,9.30
2007,10,17,10,11,9.40
2007,10,17,10,12,9.50
2007,10,17,10,13,9.50
2007,10,17,10,14,9.60
2007,10,17,10,15,9.70
2007,10,17,10,16,9.70
2007,10,17,10,17,9.80
2007,10,17,10,18,9.80
2007,10,17,10,19,9.90
2007,10,17,10,20,9.90
2007,10,17,10,21,10.00
2007,10,17,10,22,10.10
2007,10,17,10,23,10.10
2007,10,17,10,24,10.20
2007,10,17,10,29,10.50
2007,10,17,10,32,10.80
2007,10,17,10,35,11.00
2007,10,17,10,40,11.10
2007,10,17,10,41,11.10
2007,10,17,10,54,10.80
2007,10,17,10,55,10.80
2007,10,17,10,56,10.80
2007,10,17,10,57,10.80
2007,10,17,10,58,10.90
2007,10,17,10,59,10.90
2007,10,17,11,00,11.00
2007,10,17,11,01,11.00
2007,10,17,11,02,11.00
2007,10,17,11,03,11.10
2007,10,17,11,04,11.10
2007,10,17,11,05,11.20
2007,10,17,11,06,11.20
2007,10,17,11,07,11.30
2007,10,17,11,08,11.30
2007,10,17,11,09,11.30
2007,10,17,11,10,11.30
2007,10,17,11,11,11.40
2007,10,17,11,12,11.40
2007,10,17,11,13,11.40
2007,10,17,11,14,11.40
2007,10,17,11,15,11.40
2007,10,17,11,16,11.40
2007,10,17,11,17,11.40
2007,10,17,11,22,11.30
2007,10,17,11,23,11.30
2007,10,17,11,24,11.30
2007,10,17,11,25,11.30
2007,10,17,11,26,11.30
2007,10,17,11,27,11.30
2007,10,17,11,28,11.30
2007,10,17,11,29,11.40
2007,10,17,11,30,11.40
2007,10,17,11,31,11.40
2007,10,17,11,32,11.50
2007,10,17,11,33,11.50
2007,10,17,11,34,11.50
2007,10,17,11,35,11.60
2007,10,17,11,36,11.60
2007,10,17,11,37,11.60
2007,10,17,11,38,11.70
2007,10,17,11,39,11.70
2007,10,17,11,40,11.70
2007,10,17,11,41,11.70
2007,10,17,11,42,11.70
2007,10,17,11,43,11.60
2007,10,17,11,44,11.60
2007,10,17,11,45,11.50
2007,10,17,11,46,11.50
2007,10,17,11,47,11.40
2007,10,17,11,48,11.40
2007,10,17,11,49,11.50
2007,10,17,11,50,11.50
2007,10,17,11,51,11.50
2007,10,17,11,52,11.50
2007,10,17,11,53,11.60
2007,10,17,11,54,11.60
2007,10,17,11,55,11.70
2007,10,17,11,56,11.70
2007,10,17,11,57,11.80
2007,10,17,11,58,11.90
2007,10,17,11,59,11.90
2007,10,17,12,00,12.00
2007,10,17,12,01,12.00
2007,10,17,12,02,12.00
2007,10,17,12,03,12.00
2007,10,17,12,04,12.00
2007,10,17,12,05,11.90
2007,10,17,12,06,12.00
2007,10,17,12,07,12.00
2007,10,17,12,08,12.00
2007,10,17,12,09,12.00
2007,10,17,12,10,12.10
2007,10,17,12,12,12.10
2007,10,17,12,14,12.20
2007,10,17,12,16,12.20
2007,10,17,12,17,12.20
2007,10,17,12,18,12.10
2007,10,17,12,19,12.10
2007,10,17,12,20,12.10
2007,10,17,12,21,12.00
2007,10,17,12,22,12.00
2007,10,17,12,23,11.90
2007,10,17,12,24,11.90
2007,10,17,12,25,11.80
2007,10,17,12,26,11.80
2007,10,17,12,27,11.80
2007,10,17,12,28,11.70
2007,10,17,12,29,11.70
2007,10,17,12,30,11.60
2007,10,17,12,31,11.60
2007,10,17,12,32,11.60
2007,10,17,12,33,11.50
2007,10,17,12,34,11.50
2007,10,17,12,35,11.40
2007,10,17,12,36,11.40
2007,10,17,12,37,11.40
2007,10,17,12,38,11.50
2007,10,17,12,39,11.50
2007,10,17,12,40,11.50
2007,10,17,12,41,11.50
2007,10,17,12,42,11.60
2007,10,17,12,43,11.60
2007,10,17,12,44,11.60
2007,10,17,12,45,11.60
2007,10,17,12,46,11.50
2007,10,17,12,47,11.50
2007,10,17,12,48,11.40
2007,10,17,12,49,11.30
2007,10,17,12,50,11.30
2007,10,17,12,51,11.30
2007,10,17,12,52,11.30
2007,10,17,12,53,11.20
2007,10,17,12,54,11.20
2007,10,17,12,55,11.10
2007,10,17,12,56,11.10
2007,10,17,12,57,11.10
2007,10,17,12,58,11.00
2007,10,17,12,59,11.00
2007,10,17,13,00,10.90
2007,10,17,13,01,10.90
2007,10,17,13,02,10.90
2007,10,17,13,03,10.90
2007,10,17,13,04,10.80
2007,10,17,13,05,10.80
2007,10,17,13,06,10.80
2007,10,17,13,07,10.80
2007,10,17,13,08,10.80
2007,10,17,13,09,10.80
2007,10,17,13,10,10.70
2007,10,17,13,11,10.70
2007,10,17,13,12,10.70
2007,10,17,13,13,10.70
2007,10,17,13,14,10.70
2007,10,17,13,15,10.70
2007,10,17,13,16,10.70
2007,10,17,13,17,10.60
2007,10,17,13,18,10.60
2007,10,17,13,19,10.60
2007,10,17,13,20,10.60
2007,10,17,13,21,10.70
2007,10,17,13,22,10.70
2007,10,17,13,23,10.70
2007,10,17,13,24,10.80
2007,10,17,13,25,10.80
2007,10,17,13,26,10.80
2007,10,17,13,27,10.90
2007,10,17,13,28,10.90
2007,10,17,13,29,11.00
2007,10,17,13,30,11.00
2007,10,17,13,31,11.10
2007,10,17,13,32,11.20
2007,10,17,13,33,11.20
2007,10,17,13,34,11.30
2007,10,17,13,35,11.30
2007,10,17,13,36,11.40
2007,10,17,13,37,11.50
2007,10,17,13,38,11.50
2007,10,17,13,39,11.60
2007,10,17,13,40,11.60
2007,10,17,13,41,11.70
2007,10,17,13,42,11.80
2007,10,17,13,43,11.80
2007,10,17,13,44,11.80
2007,10,17,13,45,11.80
2007,10,17,13,46,11.70
2007,10,17,13,47,11.60
2007,10,17,13,48,11.60
2007,10,17,13,49,11.60
2007,10,17,13,50,11.60
2007,10,17,13,51,11.60
2007,10,17,13,52,11.50
2007,10,17,13,53,11.40
2007,10,17,13,54,11.40
2007,10,17,13,55,11.40
2007,10,17,13,56,11.30
2007,10,17,13,57,11.30
2007,10,17,13,58,11.20
2007,10,17,13,59,11.20
2007,10,17,14,00,11.20
2007,10,17,14,01,11.20
2007,10,17,14,02,11.20
2007,10,17,14,03,11.20
2007,10,17,14,04,11.20
2007,10,17,14,05,11.20
2007,10,17,14,06,11.20
2007,10,17,14,07,11.30
2007,10,17,14,08,11.30
2007,10,17,14,09,11.30
2007,10,17,14,10,11.30
2007,10,17,14,11,11.30
2007,10,17,14,12,11.30
2007,10,17,14,13,11.20
2007,10,17,14,14,11.10
2007,10,17,14,15,11.10
2007,10,17,14,16,11.00
2007,10,17,14,17,10.90
2007,10,17,14,18,10.80
2007,10,17,14,19,10.80
2007,10,17,14,20,10.80
2007,10,17,14,21,10.80
2007,10,17,14,22,10.80
2007,10,17,14,23,10.80
2007,10,17,14,24,10.80
2007,10,17,14,25,10.80
2007,10,17,14,26,10.70
2007,10,17,14,27,10.70
2007,10,17,14,28,10.70
2007,10,17,14,29,10.70
2007,10,17,14,30,10.70
2007,10,17,14,31,10.60
2007,10,17,14,32,10.60
2007,10,17,14,33,10.60
2007,10,17,14,34,10.60
2007,10,17,14,35,10.60
2007,10,17,14,36,10.70
2007,10,17,14,37,10.70
2007,10,17,14,38,10.70
2007,10,17,14,39,10.80
2007,10,17,14,40,10.80
2007,10,17,14,41,10.80
2007,10,17,14,42,10.80
2007,10,17,14,43,10.80
2007,10,17,14,44,10.80
2007,10,17,14,45,10.80
2007,10,17,14,46,10.80
2007,10,17,14,47,10.80
2007,10,17,14,48,10.80
2007,10,17,14,49,10.80
2007,10,17,14,50,10.80
2007,10,17,14,51,10.80
2007,10,17,14,52,10.80
2007,10,17,14,53,10.80
2007,10,17,14,54,10.80
2007,10,17,14,55,10.90
2007,10,17,14,56,10.90
2007,10,17,14,57,10.90
2007,10,17,14,58,10.90
2007,10,17,14,59,10.90
2007,10,17,15,00,10.90
2007,10,17,15,01,10.90
2007,10,17,15,02,10.90
2007,10,17,15,03,10.90
2007,10,17,15,04,10.90
2007,10,17,15,05,11.00
2007,10,17,15,06,11.00
2007,10,17,15,07,11.00
2007,10,17,15,08,11.00
2007,10,17,15,09,11.00
2007,10,17,15,10,11.00
2007,10,17,15,11,11.00
2007,10,17,15,12,11.10
2007,10,17,15,13,11.10
2007,10,17,15,14,11.10
2007,10,17,15,15,11.10
2007,10,17,15,16,11.10
2007,10,17,15,17,11.20
2007,10,17,15,18,11.20
2007,10,17,15,19,11.10
2007,10,17,15,20,11.10
2007,10,17,15,21,11.10
2007,10,17,15,22,11.00
2007,10,17,15,23,11.00
2007,10,17,15,24,10.90
2007,10,17,15,25,10.90
2007,10,17,15,26,10.80
2007,10,17,15,27,10.80
2007,10,17,15,28,10.80
2007,10,17,15,29,10.80
2007,10,17,15,30,10.70
2007,10,17,15,31,10.70
2007,10,17,15,32,10.70
2007,10,17,15,33,10.70
2007,10,17,15,34,10.60
2007,10,17,15,35,10.60
2007,10,17,15,36,10.60
2007,10,17,15,37,10.60
2007,10,17,15,38,10.60
2007,10,17,15,39,10.60
2007,10,17,15,40,10.60
2007,10,17,15,41,10.60
2007,10,17,15,42,10.60
2007,10,17,15,43,10.60
2007,10,17,15,44,10.60
2007,10,17,15,45,10.70
2007,10,17,15,46,10.70
2007,10,17,15,47,10.80
2007,10,17,15,48,10.80
2007,10,17,15,49,10.90
2007,10,17,15,50,11.00
2007,10,17,15,51,11.10
2007,10,17,15,52,11.20
2007,10,17,15,53,11.30
2007,10,17,15,54,11.40
2007,10,17,15,55,11.40
2007,10,17,15,56,11.50
2007,10,17,15,57,11.50
2007,10,17,15,58,11.50
2007,10,17,15,59,11.50
2007,10,17,16,00,11.50
2007,10,17,16,01,11.50
2007,10,17,16,02,11.40
2007,10,17,16,03,11.30
2007,10,17,16,04,11.30
2007,10,17,16,05,11.20
2007,10,17,16,06,11.10
2007,10,17,16,07,11.00
2007,10,17,16,08,11.00
2007,10,17,16,09,10.90
2007,10,17,16,10,10.80
2007,10,17,16,11,10.80
2007,10,17,16,12,10.70
2007,10,17,16,13,10.70
2007,10,17,16,14,10.60
2007,10,17,16,15,10.60
2007,10,17,16,16,10.50
2007,10,17,16,17,10.50
2007,10,17,16,18,10.40
2007,10,17,16,19,10.40
2007,10,17,16,20,10.40
2007,10,17,16,21,10.40
2007,10,17,16,22,10.30
2007,10,17,16,23,10.30
2007,10,17,16,24,10.30
2007,10,17,16,25,10.30
2007,10,17,16,26,10.30
2007,10,17,16,27,10.20
2007,10,17,16,28,10.20
2007,10,17,16,29,10.20
2007,10,17,16,30,10.20
2007,10,17,16,31,10.20
2007,10,17,16,32,10.10
2007,10,17,16,33,10.10
2007,10,17,16,34,10.10
2007,10,17,16,35,10.00
2007,10,17,16,36,10.00
2007,10,17,16,37,10.00
2007,10,17,16,38,9.90
2007,10,17,16,39,9.90
2007,10,17,16,40,9.90
2007,10,17,16,41,9.90
2007,10,17,16,42,9.90
2007,10,17,16,43,9.80
2007,10,17,16,44,9.80
2007,10,17,16,45,9.80
2007,10,17,16,46,9.80
2007,10,17,16,47,9.70
2007,10,17,16,48,9.70
2007,10,17,16,49,9.70
2007,10,17,16,50,9.70
2007,10,17,16,51,9.70
2007,10,17,16,52,9.70
2007,10,17,16,53,9.70
2007,10,17,16,54,9.70
2007,10,17,16,55,9.70
2007,10,17,16,56,9.70
2007,10,17,16,57,9.60
2007,10,17,16,58,9.60
2007,10,17,16,59,9.60
2007,10,17,17,00,9.60
2007,10,17,17,01,9.60
2007,10,17,17,02,9.60
2007,10,17,17,03,9.60
2007,10,17,17,04,9.60
2007,10,17,17,05,9.60
2007,10,17,17,06,9.60
2007,10,17,17,07,9.60
2007,10,17,17,08,9.60
2007,10,17,17,09,9.60
2007,10,17,17,10,9.60
2007,10,17,17,11,9.60
2007,10,17,17,12,9.60
2007,10,17,17,13,9.50
2007,10,17,17,14,9.50
2007,10,17,17,15,9.40
2007,10,17,17,16,9.40
2007,10,17,17,17,9.40
2007,10,17,17,18,9.40
2007,10,17,17,19,9.40
2007,10,17,17,20,9.40
2007,10,17,17,21,9.40
2007,10,17,17,22,9.40
2007,10,17,17,23,9.40
2007,10,17,17,24,9.50
2007,10,17,17,25,9.50
2007,10,17,17,26,9.50
2007,10,17,17,27,9.50
2007,10,17,17,28,9.50
2007,10,17,17,29,9.40
2007,10,17,17,30,9.40
2007,10,17,17,31,9.40
2007,10,17,17,32,9.40
2007,10,17,17,33,9.40
2007,10,17,17,34,9.40
2007,10,17,17,35,9.40
2007,10,17,17,36,9.30
2007,10,17,17,37,9.30
2007,10,17,17,38,9.30
2007,10,17,17,39,9.30
2007,10,17,17,40,9.30
2007,10,17,17,41,9.30
2007,10,17,17,42,9.30
2007,10,17,17,43,9.30
2007,10,17,17,44,9.30
2007,10,17,17,45,9.30
2007,10,17,17,46,9.20
2007,10,17,17,47,9.20
2007,10,17,17,48,9.20
2007,10,17,17,49,9.20
2007,10,17,17,50,9.20
2007,10,17,17,51,9.20
2007,10,17,17,52,9.20
2007,10,17,17,53,9.20
2007,10,17,17,54,9.20
2007,10,17,17,55,9.20
2007,10,17,17,56,9.20
2007,10,17,17,57,9.20
2007,10,17,17,58,9.10
2007,10,17,17,59,9.10
2007,10,17,18,00,9.10
2007,10,17,18,01,9.10
2007,10,17,18,02,9.10
2007,10,17,18,03,9.10
2007,10,17,18,04,9.10
2007,10,17,18,05,9.10
2007,10,17,18,06,9.10
2007,10,17,18,07,9.10
2007,10,17,18,08,9.10
2007,10,17,18,09,9.10
2007,10,17,18,10,9.00
2007,10,17,18,11,9.00
2007,10,17,18,12,9.00
2007,10,17,18,13,9.00
2007,10,17,18,14,9.00
2007,10,17,18,15,9.00
2007,10,17,18,16,9.00
2007,10,17,18,17,9.00
2007,10,17,18,18,8.90
2007,10,17,18,19,8.90
2007,10,17,18,20,8.90
2007,10,17,18,21,8.90
2007,10,17,18,22,8.90
2007,10,17,18,23,8.90
2007,10,17,18,24,8.90
2007,10,17,18,25,8.90
2007,10,17,18,26,8.90
2007,10,17,18,27,8.90
2007,10,17,18,28,8.80
2007,10,17,18,29,8.80
2007,10,17,18,30,8.80
2007,10,17,18,31,8.80
2007,10,17,18,32,8.80
2007,10,17,18,33,8.80
2007,10,17,18,34,8.80
2007,10,17,18,35,8.80
2007,10,17,18,36,8.80
2007,10,17,18,37,8.80
2007,10,17,18,38,8.80
2007,10,17,18,39,8.70
2007,10,17,18,40,8.70
2007,10,17,18,41,8.70
2007,10,17,18,42,8.70
2007,10,17,18,43,8.70
2007,10,17,18,44,8.70
2007,10,17,18,45,8.70
2007,10,17,18,46,8.70
2007,10,17,18,47,8.70
2007,10,17,18,48,8.70
2007,10,17,18,49,8.60
2007,10,17,18,50,8.60
2007,10,17,18,51,8.60
2007,10,17,18,52,8.60
2007,10,17,18,53,8.60
2007,10,17,18,54,8.60
2007,10,17,18,55,8.60
2007,10,17,18,56,8.60
2007,10,17,18,57,8.60
2007,10,17,18,58,8.60
2007,10,17,18,59,8.60
2007,10,17,19,00,8.50
2007,10,17,19,01,8.60
2007,10,17,19,02,8.60
2007,10,17,19,03,8.60
2007,10,17,19,04,8.60
2007,10,17,19,05,8.60
2007,10,17,19,06,8.60
2007,10,17,19,07,8.60
2007,10,17,19,08,8.60
2007,10,17,19,09,8.60
2007,10,17,19,10,8.60
2007,10,17,19,11,8.60
2007,10,17,19,12,8.60
2007,10,17,19,13,8.60
2007,10,17,19,14,8.60
2007,10,17,19,15,8.50
2007,10,17,19,16,8.50
2007,10,17,19,17,8.50
2007,10,17,19,18,8.50
2007,10,17,19,19,8.40
2007,10,17,19,20,8.40
2007,10,17,19,21,8.40
2007,10,17,19,22,8.40
2007,10,17,19,23,8.40
2007,10,17,19,24,8.30
2007,10,17,19,25,8.30
2007,10,17,19,26,8.30
2007,10,17,19,27,8.30
2007,10,17,19,28,8.30
2007,10,17,19,29,8.30
2007,10,17,19,30,8.30
2007,10,17,19,31,8.30
2007,10,17,19,32,8.30
2007,10,17,19,33,8.20
2007,10,17,19,34,8.20
2007,10,17,19,35,8.20
2007,10,17,19,36,8.20
2007,10,17,19,37,8.20
2007,10,17,19,38,8.20
2007,10,17,19,39,8.20
2007,10,17,19,40,8.20
2007,10,17,19,41,8.20
2007,10,17,19,42,8.20
2007,10,17,19,43,8.10
2007,10,17,19,44,8.10
2007,10,17,19,45,8.10
2007,10,17,19,46,8.10
2007,10,17,19,47,8.10
2007,10,17,19,48,8.10
2007,10,17,19,49,8.00
2007,10,17,19,50,8.00
2007,10,17,19,51,8.00